Location: Plainartige
(45.6866°N, 1.7993°E)
Time: 05:07:03
(UTC+00:00)

Vanguard 1 - Pass Details

Date: 02 June 2022
Orbit: 649 x 3833 km, 34.2° (Epoch: 06 July)

Event Time Altitude Azimuth Distance (km) Brightness Sun altitude
Exits shadow 22:36:45 25° 185° (S) 2,935 11.9 -20.0°
Maximum altitude 22:41:13 33° 146° (SE) 2,979 11.9 -20.2°
Drops below altitude 10° 22:54:34 10° 91° (E) 5,812 13.8 -20.8°
Sets 23:00:39 0° 84° (E) 7,295 14.4 -21.1°
